WEATHER DATA

YESTERDAY
Time Temp. Dewp. Hum. Wind dir Wind speed Wind gust Bar. 1h Prec. 24h Prec.
00:01 21.8 12.4 55 270 0.3 1.1 1016.7 0.0000 0.0000
00:21 21.5 12.4 56 282 0.8 1.4 1016.9 0.0000 0.0000
00:31 21.4 12.3 56 270 0.3 1.4 1016.9 0.0000 0.0000
00:41 21.2 12.1 56 270 0.3 1.4 1017 0.0000 0.0000
00:51 21 12.2 57 270 0.3 1.1 1017.1 0.0000 0.0000
01:02 20.8 12.2 58 315 0.3 1.4 1017.1 0.0000 0.0000
01:11 20.7 12.1 58 270 0.3 1.4 1017.1 0.0000 0.0000
01:21 20.5 12.2 59 270 0.3 1.4 1017.1 0.0000 0.0000
01:32 20.4 12.4 60 270 0.3 2.2 1017.2 0.0000 0.0000
01:42 20.3 12.8 62 270 0.8 1.9 1017.1 0.0000 0.0000
01:51 20.3 12.8 62 270 0.3 1.1 1017 0.0000 0.0000
02:01 20.2 12.9 63 270 0.3 1.4 1017 0.0000 0.0000
02:12 20.2 12.9 63 270 0.3 1.4 1017 0.0000 0.0000
02:22 20.1 13.1 64 270 0.8 1.9 1016.9 0.0000 0.0000
02:32 20 13 64 288 0.8 1.9 1016.9 0.0000 0.0000
02:42 19.9 13.1 65 315 0.3 1.4 1017 0.0000 0.0000
02:52 19.8 13 65 270 0.3 1.4 1016.9 0.0000 0.0000
03:02 19.7 13.2 66 270 0.3 1.4 1016.7 0.0000 0.0000
03:12 19.6 13.1 66 270 0.3 1.4 1016.5 0.0000 0.0000
03:22 19.5 13.2 67 270 0.8 1.4 1016.6 0.0000 0.0000
03:32 19.4 13.1 67 270 0.3 1.1 1016.4 0.0000 0.0000
03:42 19.3 13 67 270 0.3 1.9 1016.3 0.0000 0.0000
03:53 19.2 13.2 68 270 0.3 1.1 1016.2 0.0000 0.0000
04:03 19.1 13.1 68 270 0.3 1.4 1016.2 0.0000 0.0000
04:12 19.1 13.1 68 270 0.3 1.9 1016.3 0.0000 0.0000
04:22 19 13 68 270 0.3 1.9 1016.2 0.0000 0.0000
04:33 18.9 12.9 68 285 0.8 1.4 1016 0.0000 0.0000
04:43 18.8 13 69 270 0.8 1.9 1015.9 0.0000 0.0000
04:52 18.7 12.9 69 270 0.3 1.4 1015.9 0.0000 0.0000
05:03 18.6 12.8 69 270 0.8 2.2 1016 0.0000 0.0000
05:13 18.5 12.9 70 270 0.8 1.4 1015.8 0.0000 0.0000
05:23 18.4 12.8 70 286 0.8 1.9 1015.9 0.0000 0.0000
05:33 18.3 12.7 70 270 0.3 1.1 1016 0.0000 0.0000
05:43 18.3 12.7 70 270 0.3 1.4 1016 0.0000 0.0000
05:53 18.2 12.9 71 315 0.3 1.4 1016.1 0.0000 0.0000
06:03 18.1 12.8 71 270 0.3 1.4 1016.1 0.0000 0.0000
06:14 18 12.7 71 270 0.3 1.1 1016.2 0.0000 0.0000
06:23 17.9 12.8 72 270 0.3 2.5 1016.3 0.0000 0.0000
06:33 17.9 12.8 72 306 0.3 1.1 1016.4 0.0000 0.0000
06:43 17.8 12.7 72 270 0.3 1.9 1016.3 0.0000 0.0000
06:54 17.8 12.7 72 315 0.3 1.1 1016.3 0.0000 0.0000
07:04 17.8 12.7 72 270 0.3 1.4 1016.4 0.0000 0.0000
07:13 17.8 12.7 72 270 0.3 1.4 1016.4 0.0000 0.0000
07:24 17.8 12.7 72 315 0.3 1.4 1016.3 0.0000 0.0000
07:34 17.8 12.7 72 270 0.3 1.4 1016.2 0.0000 0.0000
07:44 17.9 12.8 72 315 0.3 1.4 1016.2 0.0000 0.0000
07:53 18 13.1 73 315 0.3 1.1 1016.4 0.0000 0.0000
08:04 18.2 13.1 72 322 0.3 1.1 1016.4 0.0000 0.0000
08:14 18.4 13.3 72 270 0.3 1.4 1016.2 0.0000 0.0000
08:24 18.6 13.5 72 315 0.3 1.4 1016.2 0.0000 0.0000
08:34 18.9 13.7 72 323 0.3 1.1 1016.3 0.0000 0.0000
08:44 19.1 13.7 71 306 0.3 2.5 1016.2 0.0000 0.0000
08:54 19.2 13.6 70 341 0.3 1.1 1016.3 0.0000 0.0000
09:04 19.2 13.6 70 315 0.3 1.1 1016.5 0.0000 0.0000
09:15 19.2 13.6 70 270 0.3 1.1 1016.3 0.0000 0.0000
09:24 19.2 13.6 70 270 0.3 1.1 1016.3 0.0000 0.0000
09:34 19.3 13.7 70 270 0.3 1.9 1016.1 0.0000 0.0000
09:45 19.3 13.7 70 315 0.3 1.4 1016.2 0.0000 0.0000
09:55 19.5 13.9 70 315 0.3 1.1 1016 0.0000 0.0000
10:05 19.6 14 70 320 0.3 1.4 1016 0.0000 0.0000
10:14 19.7 13.9 69 341 0.3 1.1 1016 0.0000 0.0000
10:25 19.7 13.9 69 341 0.3 1.1 1016 0.0000 0.0000
10:35 19.7 13.9 69 336 0.3 1.1 1016 0.0000 0.0000
10:45 19.9 13.8 68 315 0.3 0.8 1016 0.0000 0.0000
10:55 20 13.9 68 270 0.3 1.1 1016.1 0.0000 0.0000
11:05 20 13.9 68 315 0.3 0.8 1016.1 0.0000 0.0000
11:15 20.1 14 68 333 0.3 0.8 1016.2 0.0000 0.0000
11:25 20.2 14.1 68 303 0.3 0.8 1016.2 0.0000 0.0000
11:36 20.3 14.2 68 333 0.3 0.8 1016 0.0000 0.0000
11:45 20.4 14.3 68 315 0.3 1.1 1016 0.0000 0.0000
11:55 20.5 14.4 68 323 0.3 0.8 1016.1 0.0000 0.0000
12:06 20.4 14.5 69 90 0.3 1.1 1016.1 0.0000 0.0000
12:16 20.4 14.8 70 90 0.3 1.1 1016 0.0000 0.0000
12:25 20.3 14.9 71 30 0.3 0.8 1016 0.0000 0.0000
12:35 20.3 14.9 71 0 0.3 0.8 1015.9 0.0000 0.0000
12:46 20.4 15 71 348 0.3 0.8 1015.7 0.0000 0.0000
12:56 20.6 14.9 70 341 0.3 0.8 1015.6 0.0000 0.0000
13:06 20.7 15 70 11 0.3 0.8 1015.6 0.0000 0.0000
13:16 20.8 15.1 70 315 0.3 0.8 1015.3 0.0000 0.0000
13:26 21.1 15.2 69 270 0.3 1.1 1015.5 0.0000 0.0000
13:36 21.4 15.5 69 345 0.3 0.8 1015.5 0.0000 0.0000
13:46 21.9 15.7 68 270 0.3 1.1 1015.3 0.0000 0.0000
13:57 22.8 15.9 65 180 0.3 1.1 1015.1 0.0000 0.0000
14:06 23.2 15.8 63 270 0.3 1.1 1015 0.0000 0.0000
14:16 23.6 15.6 61 270 0.3 1.1 1014.9 0.0000 0.0000
14:27 23.9 15.7 60 270 0.3 1.4 1014.7 0.0000 0.0000
14:37 24.4 15.6 58 306 0.3 1.4 1014.6 0.0000 0.0000
14:46 24.6 15.2 56 135 0.8 1.9 1014.5 0.0000 0.0000
14:56 24.8 15.2 55 270 0.3 1.4 1014.3 0.0000 0.0000
15:07 25.2 15.5 55 270 0.3 1.4 1014.1 0.0000 0.0000
15:17 25.6 15.3 53 270 0.3 1.9 1014 0.0000 0.0000
15:27 25.7 15.1 52 135 0.8 1.9 1013.9 0.0000 0.0000
15:37 25.6 15 52 270 0.8 1.4 1013.9 0.0000 0.0000
15:47 25.6 14.7 51 270 0.8 1.4 1013.8 0.0000 0.0000
15:57 25.2 14.7 52 45 0.8 1.9 1013.7 0.0000 0.0000
16:07 25.2 14.9 53 66 0.8 1.4 1013.6 0.0000 0.0000
16:17 25.4 14.5 51 270 0.3 1.4 1013.4 0.0000 0.0000
16:27 25.5 14.6 51 282 0.8 1.9 1013.3 0.0000 0.0000
16:37 25.7 14.5 50 201 0.3 1.1 1013.4 0.0000 0.0000
16:48 25.5 14 49 225 0.8 1.4 1013.3 0.0000 0.0000
16:58 25.2 13.7 49 225 0.8 2.2 1013.3 0.0000 0.0000
17:07 24.9 13.5 49 135 0.8 1.9 1013.4 0.0000 0.0000
17:17 24.5 13.1 49 225 0.3 1.1 1013.4 0.0000 0.0000
17:28 24.2 13.4 51 135 0.3 1.4 1013.7 0.0000 0.0000
17:38 23.9 13.5 52 135 0.3 1.1 1013.7 0.0000 0.0000
17:47 23.5 13.4 53 135 0.3 1.1 1013.8 0.0000 0.0000
17:58 23.1 13.3 54 135 0.3 0.8 1013.9 0.0000 0.0000
18:08 22.5 13.8 58 155 0.8 1.4 1013.9 0.0000 0.0000
18:18 21.3 14.2 64 285 0.8 1.9 1014.2 0.0000 0.0000
18:28 20.3 13.7 66 282 0.8 2.2 1014.3 0.0000 0.0000
18:38 19.5 13.4 68 306 0.8 1.9 1015 0.0000 0.0000
18:54 18.3 13.4 73 335 0.3 1.1 1015.3 0.0000 0.0000
19:04 17.7 13.2 75 270 0.8 1.4 1015.2 0.0000 0.0000
19:14 17.2 12.9 76 257 0.8 1.4 1015.1 0.8080 0.8000
19:24 16.8 12.9 78 270 0.8 1.4 1015.5 2.5250 2.5000
19:34 16.5 12.8 79 270 1.1 1.9 1015.3 3.5350 3.5000
19:37 16.4 12.8 79 260 0.8 1.4 1015.5 3.7370 3.7000
19:47 16.1 12.8 81 270 0.8 1.9 1015.2 4.9490 5.0000
19:57 16 12.9 82 270 0.8 1.4 1015.2 5.3530 5.4000
20:07 15.9 13 83 225 0.3 0.8 1015.1 4.8480 5.7000
20:17 15.8 13.1 84 259 0.8 1.1 1015.3 3.1310 5.7000
20:27 15.8 13.3 85 233 0.3 1.1 1015.5 2.1210 5.7000
20:37 15.8 13.5 86 260 0.8 1.1 1015.1 1.6160 5.7000
20:48 15.8 13.6 87 270 0.8 1.4 1015.3 0.6060 5.8000
20:58 15.8 13.6 87 270 0.8 1.4 1015.3 0.2020 5.8000
21:07 15.8 13.6 87 270 0.3 1.1 1015.3 0.1010 5.8000
21:18 15.8 13.8 88 270 0.3 1.1 1015.1 0.1010 5.8000
21:28 15.8 13.8 88 280 0.8 1.4 1015 0.1010 5.8000
21:38 15.8 14 89 270 0.3 1.4 1015.1 0.0000 5.8000
21:47 15.9 14.1 89 270 0.3 1.1 1015.3 0.0000 5.8000
21:58 15.9 14.1 89 270 0.3 0.8 1015.1 0.0000 5.8000
22:08 15.9 14.1 89 270 0.3 1.1 1014.9 0.0000 5.8000
22:18 15.8 14 89 270 0.3 1.1 1015.1 0.0000 5.8000
22:28 15.8 14 89 315 0.3 0.8 1015.1 0.0000 5.8000
22:38 15.8 14.2 90 270 0.3 0.8 1015.1 0.0000 5.8000
22:48 15.8 14.2 90 45 0.3 0.8 1015.1 0.0000 5.8000
22:58 15.7 14.1 90 90 0.3 0.8 1015.5 0.0000 5.8000
23:09 15.6 14 90 59 0.3 0.8 1015.6 0.0000 5.8000
23:19 15.5 13.9 90 57 0.3 1.9 1015.8 0.0000 5.8000
23:28 15.5 13.9 90 315 0.3 1.1 1015.8 0.0000 5.8000
23:39 15.5 13.9 90 90 0.3 1.1 1015.9 0.0000 5.8000
23:49 15.4 13.9 91 90 0.3 1.4 1016 0.0000 5.8000

DAY STATISTIC

2020-08-03
TEMPERATURE
AVERAGE
19.7
HIGH
25.7
15:27
LOW
15.4
23:49
PRESSURE
AVERAGE
1015.6
HIGH
1017.2
01:32
LOW
1013.3
16:27
DEWPOINT
AVERAGE
13.7
HIGH
15.9
13:57
LOW
12.1
00:41
HUMIDITY
AVERAGE
69
HIGH
91
23:49
LOW
49
16:48
WIND SPEED
AVERAGE
0.4
HIGH
1.1
19:34
WIND GUST
AVERAGE
1.3
HIGH
2.5
06:23
WIND DIRECTION
PREVAILING
W
54.9%
N
5.6
NE
4.2
E
3.5
SE
5.6
S
1.4
SW
3.5
W
54.9
NW
21.1
PRECIPITATION
RAIN HOUR
5.4
RAIN DAY
5.8
TEMPERATURE (°C)
LOW
15.4
HIGH
25.7
AVERAGE
19.7
PRESSURE (hpa)
LOW
1013.3
HIGH
1017.2
AVERAGE
1015.6
DEVICE